shoulder
new_line
new_line
first
second
third
Al di la della Luna; Beyond the Moon; Astrophotography; Astrofotografia; Danilo Pivato
 
 
         
         
2026

Orbital Elements

Epoch 2025 May 21.0 TT = JDT 2461800.5
T 2026 Aug. 2.13382 TT                                        Pike
q   1.4176106            (2000.0)                        P                       Q 
n   0.18373645     Peri.   195.48083     +0.68036923     +0.70931004 
a   3.0643556      Node   117.79822      -0.64833155     +0.69981023                                 
e   0.5373871      Incl.       12.02720      -0.34170734     +0.08452752
P   5.36
Return in the future: 07/2026
 
         
         
2026.04.26
2026.05.23
2026.06.08
2026.06.13
2026.06.16
         
         
       
         
         
         
         
         
         

 

       
 
Since: 01/01/2004
 
           
Since: 01/11/2010